Weather reports worldwide

Advertisment
Landsort, Sweden (2582): temperature & dewpoint: 11.10.2019 23:00:00 - 17.10.2019 23:00:00 (CEST)Landsort, Sweden (2582): wind speed & gusts: 11.10.2019 23:00:00 - 17.10.2019 23:00:00 (CEST)Landsort, Sweden (2582): wind direction: 11.10.2019 23:00:00 - 17.10.2019 23:00:00 (CEST)Landsort, Sweden (2582): reduced air pressure: 11.10.2019 23:00:00 - 17.10.2019 23:00:00 (CEST)Landsort, Sweden (2582): visibility: 11.10.2019 23:00:00 - 17.10.2019 23:00:00 (CEST)Landsort, Sweden (2582): precipitation: 11.10.2019 23:00:00 - 17.10.2019 23:00:00 (CEST)
Date & Time tt [°C] td [°C] ff [km/h] ff [kn] fx [km/h] fx [kn] dd ppp [hPa] vv [km] rr [mm]
17.10.2019 23:00:00 - - - - - - - - - -
17.10.2019 22:00:00 9,1 7,5 9 5 15 8 S 1011,1 47 0,0
17.10.2019 21:00:00 9,0 7,6 9 5 11 6 SSW 1010,9 50 0,0
17.10.2019 20:00:00 8,9 7,7 0 0 5 3 N 1011,0 50 0,0
17.10.2019 19:00:00 8,8 7,6 3 2 6 4 WSW 1010,9 50 0,0
17.10.2019 18:00:00 8,7 7,5 3 1 10 5 W 1010,6 50 0,0
17.10.2019 17:00:00 8,7 7,5 6 4 11 6 WNW 1010,4 44 0,0
17.10.2019 16:00:00 8,7 7,5 8 5 16 8 WNW 1010,2 33 0,0
17.10.2019 15:00:00 8,8 7,2 8 4 16 9 NW 1009,7 50 0,0
17.10.2019 14:00:00 8,6 7,4 10 6 18 10 NW 1009,3 36 0,0
17.10.2019 13:00:00 8,7 7,3 13 7 24 13 NNW 1009,0 50 0,0
17.10.2019 12:00:00 8,4 7,0 16 8 25 13 NNW 1008,6 50 0,0
17.10.2019 11:00:00 8,2 6,8 18 10 25 13 NNW 1008,1 50 0,0
17.10.2019 10:00:00 8,0 6,9 16 9 28 15 NNW 1007,4 50 0,0
17.10.2019 09:00:00 7,8 6,9 14 7 28 15 N 1006,7 50 0,0
17.10.2019 08:00:00 7,7 6,9 16 9 32 18 N 1006,0 50 0,0
17.10.2019 07:00:00 7,8 7,0 16 9 32 17 NNW 1005,7 50 0,0
17.10.2019 06:00:00 7,8 7,2 18 10 31 17 N 1005,2 40 1,4
17.10.2019 05:00:00 7,9 7,5 19 11 34 19 N 1005,2 7 0,0
17.10.2019 04:00:00 8,2 7,8 29 16 39 21 NNE 1004,9 6 0,0
17.10.2019 03:00:00 8,5 8,2 26 14 44 24 NNE 1005,1 4,2 0,0
17.10.2019 02:00:00 8,8 8,5 34 18 54 29 NNE 1005,0 3,3 0,0
17.10.2019 01:00:00 8,9 8,6 48 26 56 30 NE 1004,5 2,2 0,0
17.10.2019 00:00:00 9,5 9,2 39 21 49 26 NE 1004,8 2,7 0,0
16.10.2019 23:00:00 9,4 9,1 39 21 49 26 NE 1005,0 2,2 0,0
16.10.2019 22:00:00 9,4 9,1 40 22 50 27 NE 1005,0 7 0,0
16.10.2019 21:00:00 9,5 9,4 39 21 45 25 NE 1004,9 2,8 0,0
16.10.2019 20:00:00 9,7 9,6 36 20 46 25 NE 1005,4 4,4 0,0
16.10.2019 19:00:00 9,8 9,7 40 22 49 26 NE 1005,6 4,1 0,0
16.10.2019 18:00:00 9,8 9,7 34 18 43 23 NE 1005,9 4,5 0,0
16.10.2019 17:00:00 9,7 9,6 32 17 45 24 NE 1005,9 2,5 0,0
16.10.2019 16:00:00 9,6 9,5 32 18 43 23 NE 1006,1 2,4 0,0
16.10.2019 15:00:00 9,6 9,5 37 20 46 25 NE 1006,2 0,5 0,0
16.10.2019 14:00:00 9,7 9,6 40 22 49 27 ENE 1006,2 0,3 0,0
16.10.2019 13:00:00 9,8 9,7 39 21 46 25 ENE 1006,4 - 0,0
16.10.2019 12:00:00 10,0 9,8 36 19 45 24 ENE 1006,7 - 0,0
16.10.2019 11:00:00 10,2 10,0 37 20 43 23 ENE 1006,9 - 0,0
16.10.2019 10:00:00 10,4 10,2 33 18 39 21 ENE 1006,9 - 0,0
16.10.2019 09:00:00 10,4 10,1 18 10 25 13 ENE 1007,7 - 0,0
16.10.2019 08:00:00 10,4 10,1 20 11 25 13 ENE 1007,8 - 0,0
16.10.2019 07:00:00 10,4 9,9 19 10 29 16 ENE 1008,1 - 0,0
16.10.2019 06:00:00 10,5 9,9 24 13 32 17 E 1008,0 - 0,0
16.10.2019 05:00:00 10,5 9,9 23 12 29 16 E 1008,2 - 0,0
16.10.2019 04:00:00 10,5 9,7 25 14 32 17 E 1008,8 - 0,0
16.10.2019 03:00:00 10,5 9,7 24 13 32 17 E 1009,2 - 0,0
16.10.2019 02:00:00 10,5 9,7 25 14 31 17 ESE 1009,7 - 0,0
16.10.2019 01:00:00 10,6 9,7 27 15 34 19 ESE 1010,2 - 0,0
16.10.2019 00:00:00 10,5 9,6 23 13 29 15 E 1011,2 - 0,0
15.10.2019 23:00:00 10,5 9,4 23 13 31 17 ESE 1011,8 - 0,0
15.10.2019 22:00:00 10,5 9,4 24 13 32 17 ESE 1012,5 - 0,0
15.10.2019 21:00:00 10,5 9,3 28 15 39 21 ESE 1012,7 - 0,0
15.10.2019 20:00:00 10,3 8,9 36 19 42 23 ESE 1012,3 - 0,0
15.10.2019 19:00:00 10,2 9,1 32 18 41 22 ESE 1013,5 - 0,0
15.10.2019 18:00:00 10,0 8,9 34 18 46 25 ESE 1013,9 - 0,0
15.10.2019 17:00:00 9,8 8,4 39 21 49 26 ESE 1014,2 - 0,0
15.10.2019 16:00:00 9,9 8,2 35 19 43 23 ESE 1014,9 - 0,0
15.10.2019 15:00:00 10,0 7,4 31 17 42 23 ESE 1015,9 0,1 0,0
15.10.2019 14:00:00 9,8 7,2 37 20 52 28 ESE 1016,3 - 0,0
15.10.2019 13:00:00 9,7 7,0 32 17 45 24 ESE 1017,2 0,1 0,0
15.10.2019 12:00:00 9,9 6,4 37 20 45 24 SE 1017,5 0,1 0,0
15.10.2019 11:00:00 10,1 6,8 37 20 44 24 SE 1017,8 0,1 0,0
15.10.2019 10:00:00 10,1 7,3 31 17 47 25 ESE 1018,2 0,1 0,0
15.10.2019 09:00:00 - - - - - - - - - -
15.10.2019 08:00:00 9,8 6,5 32 17 37 20 E 1018,2 0,1 0,0
15.10.2019 07:00:00 9,7 6,0 21 12 27 14 E 1018,9 0,1 0,0
15.10.2019 06:00:00 9,8 5,8 23 13 28 15 ESE 1019,0 0,1 0,0
15.10.2019 05:00:00 9,8 6,3 20 11 23 13 ESE 1019,2 0,1 0,0
15.10.2019 04:00:00 9,6 6,7 21 11 24 13 ESE 1018,9 0,1 0,0
15.10.2019 03:00:00 8,9 7,7 17 9 22 12 ENE 1019,0 0,1 0,0
15.10.2019 02:00:00 8,6 7,4 18 10 22 12 NE 1018,5 - 0,0
15.10.2019 01:00:00 8,3 6,9 14 8 20 11 NE 1018,5 - 0,0
15.10.2019 00:00:00 8,3 6,8 15 8 19 10 NNE 1018,1 - 0,0
14.10.2019 23:00:00 8,5 6,6 15 8 20 11 NNE 1017,9 - 0,0
14.10.2019 22:00:00 8,6 7,1 15 8 20 11 NNE 1017,0 - 0,0
14.10.2019 21:00:00 9,1 7,2 14 8 19 10 NNE 1016,4 - 0,0
14.10.2019 20:00:00 9,4 7,2 9 5 24 13 NNE 1015,2 - 0,0
14.10.2019 19:00:00 9,7 6,4 22 12 30 16 NNE 1014,1 0,1 0,0
14.10.2019 18:00:00 9,4 7,3 16 9 26 14 N 1012,8 0,1 0,0
14.10.2019 17:00:00 9,4 7,7 16 9 33 18 N 1011,4 0,1 0,0
14.10.2019 16:00:00 9,5 7,4 22 12 43 23 NNE 1009,7 - 0,0
14.10.2019 15:00:00 9,5 7,4 35 19 47 25 NNE 1007,6 - 0,0
14.10.2019 14:00:00 9,3 8,4 37 20 47 26 NE 1005,5 - 0,0
14.10.2019 13:00:00 9,7 8,6 36 19 44 24 NE 1003,7 - 0,0
14.10.2019 12:00:00 9,5 8,6 38 20 46 25 NE 1002,0 38 0,0
14.10.2019 11:00:00 10,5 10,0 26 14 34 18 W 1000,7 14 0,0
14.10.2019 10:00:00 10,8 10,3 18 10 24 13 WSW 999,4 11 0,0
14.10.2019 09:00:00 10,8 10,3 16 9 46 25 S 999,3 8 0,0
14.10.2019 08:00:00 9,9 9,3 26 14 53 29 ESE 998,8 14 0,1
14.10.2019 07:00:00 9,5 8,9 39 21 56 31 E 999,6 5 0,1
14.10.2019 06:00:00 8,8 8,0 48 26 56 30 E 1000,8 2,6 0,7
14.10.2019 05:00:00 9,1 8,2 42 23 51 28 E 1002,2 4,6 1,0
14.10.2019 04:00:00 9,4 8,2 36 19 45 24 ESE 1003,8 5 1,0
14.10.2019 03:00:00 9,8 8,7 24 13 35 19 SE 1005,4 8 2,1
14.10.2019 02:00:00 10,3 9,8 23 12 32 17 SSE 1006,1 6 1,2
14.10.2019 01:00:00 10,6 9,8 19 10 22 12 SSE 1007,4 15 0,0
14.10.2019 00:00:00 10,5 9,6 13 7 15 8 SSE 1008,3 16 0,0
13.10.2019 23:00:00 10,6 9,5 12 6 18 10 SSW 1010,1 18 0,0
13.10.2019 22:00:00 10,7 9,3 16 8 22 12 S 1010,8 21 0,0
13.10.2019 21:00:00 10,6 8,9 12 7 18 10 SSW 1010,8 34 0,0
13.10.2019 20:00:00 10,7 8,6 14 8 20 11 SW 1010,9 36 0,0
13.10.2019 19:00:00 10,5 8,6 14 8 21 11 SSW 1011,0 27 0,0
13.10.2019 18:00:00 10,5 8,6 14 8 19 11 SSW 1010,6 32 0,0
13.10.2019 17:00:00 10,8 8,4 13 7 19 10 SSW 1010,8 39 0,0
13.10.2019 16:00:00 11,5 8,2 14 8 21 12 WSW 1010,3 39 0,0
13.10.2019 15:00:00 11,7 8,2 17 9 29 15 WSW 1009,9 37 0,0
13.10.2019 14:00:00 11,1 8,1 23 12 29 15 WSW 1009,5 29 0,0
13.10.2019 13:00:00 11,0 7,9 23 12 32 17 WSW 1008,8 30 0,0
13.10.2019 12:00:00 11,0 7,9 26 14 42 23 W 1008,3 35 0,0
13.10.2019 11:00:00 10,5 6,6 33 18 43 23 W 1007,7 36 0,0
13.10.2019 10:00:00 10,2 6,9 31 17 42 23 W 1006,8 33 0,0
13.10.2019 09:00:00 10,1 6,8 32 17 40 22 W 1005,8 38 0,0
13.10.2019 08:00:00 10,3 7,0 31 17 47 26 W 1004,7 36 0,0
13.10.2019 07:00:00 10,6 7,1 37 20 49 27 W 1003,6 45 0,0
13.10.2019 06:00:00 10,8 7,9 39 21 48 26 WSW 1002,7 31 0,0
13.10.2019 05:00:00 10,9 7,9 35 19 48 26 WSW 1002,1 28 0,0
13.10.2019 04:00:00 10,9 7,8 37 20 50 27 W 1001,3 29 0,0
13.10.2019 03:00:00 10,9 7,8 40 22 55 30 WSW 1000,9 29 0,0
13.10.2019 02:00:00 10,8 7,9 32 17 46 25 WSW 1000,4 31 0,0
13.10.2019 01:00:00 10,9 8,1 35 19 49 26 WSW 999,9 42 0,0
13.10.2019 00:00:00 11,0 8,0 34 19 49 26 WSW 999,4 35 0,0
12.10.2019 23:00:00 10,8 8,4 31 17 47 26 WSW 999,0 35 0,0
12.10.2019 22:00:00 11,1 8,3 37 20 49 26 WSW 998,5 41 0,0
12.10.2019 21:00:00 11,3 8,3 36 19 58 32 WSW 998,2 37 0,0
12.10.2019 20:00:00 11,3 8,5 27 14 37 20 SW 998,0 34 0,0
12.10.2019 19:00:00 11,3 8,3 23 13 - - WSW 998,0 23 0,2
12.10.2019 18:00:00 11,6 8,1 31 17 40 22 WSW 997,8 22 0,0
12.10.2019 17:00:00 11,8 7,9 31 17 45 24 WSW 997,2 34 0,0
12.10.2019 16:00:00 12,3 7,6 33 18 45 25 WSW 997,0 26 0,0
12.10.2019 15:00:00 12,1 8,0 33 18 50 27 WSW 996,8 22 0,0
12.10.2019 14:00:00 11,8 8,1 34 19 49 26 W 996,3 21 0,0
12.10.2019 13:00:00 11,5 8,5 35 19 43 23 WSW 996,1 19 0,0
12.10.2019 12:00:00 11,1 8,7 28 15 42 23 WSW 995,7 20 0,0
12.10.2019 11:00:00 10,5 8,1 36 19 45 24 WSW 995,1 20 0,0
12.10.2019 10:00:00 10,2 8,1 36 20 46 25 WSW 994,5 18 0,0
12.10.2019 09:00:00 10,1 8,0 40 22 53 28 WSW 993,8 21 0,0
12.10.2019 08:00:00 10,0 8,3 41 22 53 29 W 992,9 23 0,0
12.10.2019 07:00:00 10,0 8,1 40 21 50 27 W 992,6 27 0,0
12.10.2019 06:00:00 10,2 8,3 36 19 46 25 W 992,2 28 0,0
12.10.2019 05:00:00 10,5 8,6 37 20 46 25 W 991,9 27 0,0
12.10.2019 04:00:00 10,5 9,1 25 14 45 25 WSW 991,8 26 0,0
12.10.2019 03:00:00 10,5 8,8 34 18 43 23 WSW 991,9 22 0,0
12.10.2019 02:00:00 11,0 9,1 35 19 48 26 WSW 991,9 45 0,0
12.10.2019 01:00:00 10,9 9,5 32 17 45 25 WSW 992,0 23 0,0
12.10.2019 00:00:00 11,2 9,8 36 20 51 28 SW 992,0 45 0,0
11.10.2019 23:00:00 11,0 10,1 34 19 50 27 SW 992,3 30 0,2

tt = temperature
td = dewpoint
ff = wind speed
fx = gusts
dd = wind direction
ppp = reduced air pressure
vv = visibility
rr = precipitation

Next stations